• In Kazakhstan
  • List of Countries
  • For 7 days
  • Water Temperature
  • Satellite Maps
  • Weather Map
  • News
  • Weather Widgets
  • user-avatar
    Login

    Hourly Weather Mercin

    Today, 21 November, Tuesday

    Time Temperature Precipitation Wind Pressure Humidity
    00:00 +14°C° 0.5 mm 4 mps 754 mmHg 83%
    01:00 +13°C° 0.5 mm 4 mps 753 mmHg 85%
    02:00 +13°C° 0.5 mm 4 mps 752 mmHg 87%
    03:00 +13°C° 2 mm 4 mps 752 mmHg 87%
    04:00 +13°C° 2 mm 5 mps 752 mmHg 88%
    05:00 +13°C° 2 mm 5 mps 751 mmHg 89%
    06:00 +14°C° 0.5 mm 6 mps 752 mmHg 84%
    07:00 +14°C° 0.5 mm 7 mps 752 mmHg 78%
    08:00 +14°C° 0.5 mm 7 mps 752 mmHg 73%
    09:00 +15°C° 0.1 mm 7 mps 753 mmHg 66%
    10:00 +15°C° 0.1 mm 7 mps 754 mmHg 59%
    11:00 +16°C° 0.1 mm 7 mps 754 mmHg 53%
    12:00 +15°C° 0 mm 7 mps 754 mmHg 51%
    13:00 +15°C° 0 mm 7 mps 755 mmHg 49%
    14:00 +15°C° 0 mm 6 mps 755 mmHg 47%
    15:00 +14°C° 0 mm 6 mps 755 mmHg 50%
    16:00 +13°C° 0 mm 6 mps 756 mmHg 52%
    17:00 +11°C° 0 mm 6 mps 756 mmHg 54%
    18:00 +10°C° 0 mm 6 mps 757 mmHg 55%
    19:00 +10°C° 0 mm 6 mps 757 mmHg 56%
    20:00 +9°C° 0 mm 5 mps 758 mmHg 57%
    21:00 +9°C° 0 mm 5 mps 758 mmHg 57%
    22:00 +9°C° 0 mm 5 mps 759 mmHg 57%
    23:00 +8°C° 0 mm 5 mps 760 mmHg 57%

    Tomorrow, 22 November, Wednesday

    Time Temperature Precipitation Wind Pressure Humidity
    00:00 +8°C° 0 mm 5 mps 760 mmHg 57%
    01:00 +8°C° 0 mm 5 mps 760 mmHg 58%
    02:00 +7°C° 0 mm 5 mps 761 mmHg 58%
    03:00 +7°C° 0 mm 5 mps 761 mmHg 57%
    04:00 +7°C° 0 mm 5 mps 761 mmHg 57%
    05:00 +6°C° 0 mm 5 mps 761 mmHg 56%
    06:00 +7°C° 0 mm 4 mps 761 mmHg 53%
    07:00 +7°C° 0 mm 4 mps 762 mmHg 50%
    08:00 +8°C° 0 mm 4 mps 762 mmHg 48%
    09:00 +10°C° 0 mm 4 mps 762 mmHg 43%
    10:00 +12°C° 0 mm 4 mps 762 mmHg 39%
    11:00 +13°C° 0 mm 3 mps 763 mmHg 35%
    12:00 +13°C° 0 mm 3 mps 762 mmHg 35%
    13:00 +13°C° 0 mm 3 mps 762 mmHg 35%
    14:00 +14°C° 0 mm 2 mps 762 mmHg 35%
    15:00 +13°C° 0 mm 2 mps 762 mmHg 40%
    16:00 +10°C° 0 mm 2 mps 763 mmHg 44%
    17:00 +9°C° 0 mm 2 mps 763 mmHg 48%
    18:00 +9°C° 0 mm 2 mps 763 mmHg 46%
    19:00 +8°C° 0 mm 3 mps 764 mmHg 44%
    20:00 +8°C° 0 mm 3 mps 764 mmHg 42%
    21:00 +8°C° 0 mm 3 mps 764 mmHg 42%
    22:00 +8°C° 0 mm 3 mps 764 mmHg 42%
    23:00 +8°C° 0 mm 3 mps 764 mmHg 41%

    Day after tomorrow, 23 November, Thursday

    Time Temperature Precipitation Wind Pressure Humidity
    00:00 +8°C° 0 mm 3 mps 764 mmHg 42%
    01:00 +8°C° 0 mm 3 mps 764 mmHg 43%
    02:00 +8°C° 0 mm 3 mps 764 mmHg 44%
    03:00 +8°C° 0 mm 3 mps 764 mmHg 46%
    04:00 +8°C° 0 mm 3 mps 764 mmHg 47%
    05:00 +8°C° 0 mm 3 mps 764 mmHg 49%
    06:00 +9°C° 0 mm 2 mps 764 mmHg 48%
    07:00 +9°C° 0 mm 2 mps 764 mmHg 48%
    08:00 +10°C° 0 mm 2 mps 764 mmHg 48%
    09:00 +13°C° 0 mm 2 mps 764 mmHg 49%
    10:00 +14°C° 0 mm 2 mps 764 mmHg 49%
    11:00 +15°C° 0 mm 2 mps 764 mmHg 50%
    12:00 +15°C° 0 mm 2 mps 763 mmHg 52%
    13:00 +16°C° 0 mm 3 mps 763 mmHg 53%
    14:00 +16°C° 0 mm 3 mps 763 mmHg 55%
    15:00 +15°C° 0 mm 2 mps 763 mmHg 61%
    16:00 +14°C° 0 mm 2 mps 763 mmHg 67%
    17:00 +12°C° 0 mm 2 mps 763 mmHg 72%
    18:00 +12°C° 0 mm 2 mps 763 mmHg 71%
    19:00 +11°C° 0 mm 3 mps 763 mmHg 70%
    20:00 +11°C° 0 mm 3 mps 763 mmHg 69%
    21:00 +11°C° 0 mm 4 mps 763 mmHg 68%
    22:00 +11°C° 0 mm 4 mps 763 mmHg 68%
    23:00 +11°C° 0 mm 4 mps 763 mmHg 67%

    24 November, Friday

    Time Temperature Precipitation Wind Pressure Humidity
    00:00 +10°C° 0 mm 4 mps 763 mmHg 67%
    01:00 +10°C° 0 mm 4 mps 763 mmHg 67%
    02:00 +10°C° 0 mm 4 mps 763 mmHg 67%
    03:00 +10°C° 0 mm 4 mps 763 mmHg 66%
    04:00 +10°C° 0 mm 4 mps 763 mmHg 66%
    05:00 +10°C° 0 mm 4 mps 763 mmHg 66%
    06:00 +11°C° 0 mm 4 mps 763 mmHg 64%
    07:00 +11°C° 0 mm 3 mps 764 mmHg 61%
    08:00 +12°C° 0 mm 3 mps 764 mmHg 59%
    09:00 +13°C° 0 mm 3 mps 764 mmHg 55%
    10:00 +16°C° 0 mm 3 mps 764 mmHg 52%
    11:00 +17°C° 0 mm 3 mps 764 mmHg 48%
    12:00 +17°C° 0 mm 3 mps 764 mmHg 48%
    13:00 +18°C° 0 mm 2 mps 764 mmHg 48%
    14:00 +18°C° 0 mm 2 mps 764 mmHg 48%
    15:00 +16°C° 0 mm 2 mps 764 mmHg 54%
    16:00 +15°C° 0 mm 2 mps 764 mmHg 60%
    17:00 +13°C° 0 mm 2 mps 764 mmHg 66%
    18:00 +13°C° 0 mm 2 mps 765 mmHg 63%
    19:00 +13°C° 0 mm 2 mps 765 mmHg 61%
    20:00 +12°C° 0 mm 2 mps 765 mmHg 58%
    21:00 +12°C° 0 mm 2 mps 766 mmHg 56%
    22:00 +12°C° 0 mm 2 mps 766 mmHg 54%
    23:00 +11°C° 0 mm 3 mps 766 mmHg 52%

    25 November, Saturday

    Time Temperature Precipitation Wind Pressure Humidity
    00:00 +11°C° 0 mm 3 mps 766 mmHg 52%
    01:00 +10°C° 0 mm 3 mps 766 mmHg 52%
    02:00 +10°C° 0 mm 3 mps 766 mmHg 51%
    03:00 +10°C° 0 mm 3 mps 766 mmHg 52%
    04:00 +10°C° 0 mm 3 mps 766 mmHg 52%
    05:00 +10°C° 0 mm 3 mps 766 mmHg 52%
    06:00 +11°C° 0 mm 3 mps 767 mmHg 51%
    07:00 +11°C° 0 mm 3 mps 767 mmHg 49%
    08:00 +12°C° 0 mm 3 mps 767 mmHg 48%
    09:00 +14°C° 0 mm 3 mps 767 mmHg 46%
    10:00 +16°C° 0 mm 3 mps 767 mmHg 45%
    11:00 +17°C° 0 mm 3 mps 767 mmHg 44%
    12:00 +17°C° 0 mm 3 mps 767 mmHg 43%
    13:00 +17°C° 0 mm 3 mps 766 mmHg 43%
    14:00 +18°C° 0 mm 3 mps 766 mmHg 43%
    15:00 +16°C° 0 mm 3 mps 766 mmHg 47%
    16:00 +14°C° 0 mm 3 mps 766 mmHg 51%
    17:00 +13°C° 0 mm 2 mps 767 mmHg 54%
    18:00 +12°C° 0 mm 3 mps 767 mmHg 54%
    19:00 +12°C° 0 mm 3 mps 767 mmHg 53%
    20:00 +12°C° 0 mm 3 mps 767 mmHg 52%
    21:00 +11°C° 0 mm 3 mps 768 mmHg 51%
    22:00 +11°C° 0 mm 4 mps 768 mmHg 50%
    23:00 +11°C° 0 mm 4 mps 768 mmHg 50%

    26 November, Sunday

    Time Temperature Precipitation Wind Pressure Humidity
    00:00 +11°C° 0 mm 4 mps 768 mmHg 49%
    01:00 +10°C° 0 mm 4 mps 768 mmHg 49%
    02:00 +10°C° 0 mm 4 mps 768 mmHg 48%
    03:00 +10°C° 0 mm 4 mps 768 mmHg 48%
    04:00 +10°C° 0 mm 4 mps 767 mmHg 47%
    05:00 +10°C° 0 mm 4 mps 767 mmHg 47%
    06:00 +10°C° 0 mm 4 mps 768 mmHg 45%
    07:00 +11°C° 0 mm 4 mps 768 mmHg 43%
    08:00 +12°C° 0 mm 4 mps 768 mmHg 41%
    09:00 +13°C° 0 mm 4 mps 768 mmHg 39%
    10:00 +15°C° 0 mm 4 mps 767 mmHg 37%
    11:00 +17°C° 0 mm 4 mps 767 mmHg 36%
    12:00 +17°C° 0 mm 4 mps 767 mmHg 35%
    13:00 +18°C° 0 mm 4 mps 766 mmHg 34%
    14:00 +18°C° 0 mm 4 mps 766 mmHg 34%
    15:00 +16°C° 0 mm 3 mps 766 mmHg 37%
    16:00 +14°C° 0 mm 3 mps 766 mmHg 40%
    17:00 +12°C° 0 mm 3 mps 766 mmHg 43%
    18:00 +12°C° 0 mm 3 mps 767 mmHg 43%
    19:00 +12°C° 0 mm 3 mps 767 mmHg 42%
    20:00 +11°C° 0 mm 3 mps 767 mmHg 42%
    21:00 +11°C° 0 mm 3 mps 767 mmHg 41%
    22:00 +11°C° 0 mm 4 mps 767 mmHg 40%
    23:00 +11°C° 0 mm 4 mps 767 mmHg 39%
    Show more